Date,Time,Wetness (Wet Dry or Ice),Wind Speed (m/s),Temperature (C),Humidity (%),Pressure (mb),Radiation (W/m^2)
2020-12-06,21:15:00,DRY,6.30,2.85,38.5,775.00,1.3
2020-12-06,21:20:00,DRY,5.30,2.70,41.7,775.00,1.2
2020-12-06,21:25:00,DRY,6.40,2.80,43.5,775.00,2.3
2020-12-06,21:30:00,WET,6.37,2.60,60.0,775.00,1.3
2020-12-06,21:35:00,WET,6.55,2.20,79.5,775.00,1.8
2020-12-06,21:40:00,WET,6.50,1.80,94.3,775.00,2.1
2020-12-06,21:45:00,WET,7.10,1.85,93.0,775.00,2.1
2020-12-06,21:50:00,WET,7.13,2.07,60.0,775.00,1.2
2020-12-06,21:55:00,WET,6.35,2.00,59.0,775.00,1.4
2020-12-06,22:00:00,WET,6.97,2.10,57.3,775.00,1.4
2020-12-06,22:05:00,WET,7.10,2.15,57.5,775.00,1.4
2020-12-06,22:10:00,WET,6.77,1.83,66.0,775.00,1.4
2020-12-06,22:15:00,WET,6.75,1.75,62.5,775.00,1.3
2020-12-06,22:20:00,WET,6.80,1.73,64.3,775.00,1.4
2020-12-06,22:25:00,WET,6.30,1.80,63.5,775.00,1.4
2020-12-06,22:30:00,WET,4.80,2.03,66.3,775.00,1.3
2020-12-06,22:35:00,WET,5.50,1.80,68.0,775.00,1.2
2020-12-06,22:40:00,WET,6.50,1.80,87.3,775.33,2.3
2020-12-06,22:45:00,WET,7.30,1.45,84.5,775.50,1.9
2020-12-06,22:50:00,WET,6.07,1.97,62.3,775.00,1.3
2020-12-06,22:55:00,WET,5.80,2.15,67.5,775.50,1.3
2020-12-06,23:00:00,WET,6.10,2.03,67.0,775.00,1.2
2020-12-06,23:05:00,WET,7.15,2.15,75.0,775.00,1.5
2020-12-06,23:10:00,WET,5.80,2.03,94.3,775.00,3.0
2020-12-06,23:15:00,WET,5.20,2.20,99.5,775.00,5.1
2020-12-06,23:20:00,WET,5.67,1.63,98.3,775.00,4.6
2020-12-06,23:25:00,WET,7.75,1.80,98.5,775.00,4.7
2020-12-06,23:30:00,WET,6.27,1.63,79.7,775.33,2.1
2020-12-06,23:35:00,WET,6.50,1.80,63.5,776.00,1.4
2020-12-06,23:40:00,WET,6.87,2.13,57.7,775.67,1.9
2020-12-06,23:45:00,WET,7.05,2.40,50.5,775.50,1.5
2020-12-06,23:50:00,WET,6.53,2.70,50.3,775.00,1.2
2020-12-06,23:55:00,WET,5.55,2.80,48.0,775.50,1.4
2020-12-07,00:00:00,WET,6.60,2.67,50.3,775.33,1.3
2020-12-07,00:05:00,DRY,6.30,2.80,43.5,775.00,1.5
2020-12-07,00:10:00,DRY,6.10,3.17,41.7,775.00,0.8
2020-12-07,00:15:00,DRY,5.35,2.95,44.0,775.00,0.9
2020-12-07,00:20:00,DRY,5.03,3.07,43.3,775.00,1.3
2020-12-07,00:25:00,DRY,6.45,4.00,30.0,775.00,1.2
2020-12-07,00:30:00,DRY,6.37,4.37,29.3,775.00,1.2
2020-12-07,00:35:00,DRY,6.20,4.25,30.0,775.00,1.0
2020-12-07,00:40:00,DRY,6.50,4.40,28.3,775.00,1.3
2020-12-07,00:45:00,DRY,3.80,4.60,29.0,775.00,0.9
2020-12-07,00:50:00,DRY,5.20,3.87,33.7,775.00,1.4
2020-12-07,00:55:00,DRY,4.65,3.65,35.5,775.00,1.2
2020-12-07,01:00:00,DRY,6.50,3.53,41.7,775.00,1.6
2020-12-07,01:05:00,DRY,6.45,3.10,44.0,775.00,1.2
2020-12-07,01:10:00,DRY,6.10,3.47,38.0,775.00,1.2
2020-12-07,01:15:00,DRY,6.25,3.50,37.5,775.00,1.4
2020-12-07,01:20:00,DRY,4.77,4.37,30.0,775.00,1.8
2020-12-07,01:25:00,DRY,6.60,4.15,27.5,775.00,1.7
2020-12-07,01:30:00,DRY,6.10,4.23,27.7,775.33,1.5
2020-12-07,01:35:00,DRY,5.65,4.25,26.5,775.00,1.3
2020-12-07,01:40:00,DRY,5.13,4.07,32.0,775.00,1.0
2020-12-07,01:45:00,DRY,5.50,3.80,33.5,775.00,2.0
2020-12-07,01:50:00,DRY,6.53,4.30,28.0,775.00,1.1
2020-12-07,01:55:00,DRY,6.25,4.85,22.5,775.00,0.8
2020-12-07,02:00:00,DRY,4.97,4.43,30.7,775.00,1.1
2020-12-07,02:05:00,DRY,6.65,4.30,30.0,775.00,1.2
2020-12-07,02:10:00,DRY,5.97,4.20,29.3,775.00,1.1
2020-12-07,02:15:00,DRY,6.65,4.45,31.5,775.00,1.7
2020-12-07,02:20:00,DRY,5.57,4.37,31.3,775.00,0.8
2020-12-07,02:25:00,DRY,6.05,4.05,30.0,775.00,1.4
2020-12-07,02:30:00,DRY,5.73,4.23,27.0,775.00,1.3
2020-12-07,02:35:00,DRY,5.65,4.55,25.0,775.00,1.2
2020-12-07,02:40:00,DRY,6.87,5.17,21.0,775.00,1.2
2020-12-07,02:45:00,DRY,4.70,5.05,23.5,775.00,1.2
2020-12-07,02:50:00,DRY,7.00,5.03,21.0,775.00,1.3
2020-12-07,02:55:00,DRY,6.70,5.35,19.5,775.00,1.4
2020-12-07,03:00:00,DRY,5.97,5.00,23.3,775.00,1.7
2020-12-07,03:05:00,DRY,6.60,4.80,23.5,775.00,1.3
2020-12-07,03:10:00,DRY,5.47,4.40,26.7,775.00,1.2
2020-12-07,03:15:00,DRY,5.25,4.30,28.5,775.00,1.4
2020-12-07,03:20:00,DRY,5.60,4.33,29.0,775.00,1.4
2020-12-07,03:25:00,DRY,6.95,4.00,35.5,775.00,1.1
2020-12-07,03:30:00,DRY,5.63,4.00,33.0,775.00,1.3
2020-12-07,03:35:00,DRY,5.75,3.55,40.5,775.00,1.2
2020-12-07,03:40:00,DRY,5.70,3.07,39.0,775.00,1.4
2020-12-07,03:45:00,DRY,4.90,2.90,42.5,775.00,1.4
2020-12-07,03:50:00,DRY,5.77,2.80,43.0,775.00,1.2
2020-12-07,03:55:00,DRY,6.10,3.00,45.5,775.00,0.7
2020-12-07,04:00:00,WET,5.17,2.97,52.7,775.00,1.2
2020-12-07,04:05:00,WET,5.90,3.10,65.0,775.00,1.4
2020-12-07,04:10:00,DRY,5.83,3.23,43.0,775.00,1.8
2020-12-07,04:15:00,DRY,6.50,3.80,37.5,775.00,1.5
2020-12-07,04:20:00,DRY,6.40,3.53,41.0,775.00,1.3
2020-12-07,04:25:00,DRY,6.60,3.60,41.5,775.00,1.1
2020-12-07,04:30:00,DRY,5.30,3.47,41.3,775.00,1.2
2020-12-07,04:35:00,DRY,5.25,3.35,35.0,775.00,1.0
2020-12-07,04:40:00,DRY,6.30,3.40,37.7,775.00,1.3
2020-12-07,04:45:00,DRY,5.85,3.35,37.0,775.00,1.1
2020-12-07,04:50:00,DRY,5.60,3.23,39.7,775.00,1.1
2020-12-07,04:55:00,DRY,5.20,3.65,32.0,775.00,1.1
2020-12-07,05:00:00,DRY,5.70,3.90,29.7,775.00,2.3
2020-12-07,05:05:00,DRY,5.95,4.50,23.0,775.00,1.7
2020-12-07,05:10:00,DRY,6.10,4.43,24.0,775.00,1.3
2020-12-07,05:15:00,DRY,4.75,4.20,28.0,775.00,1.1
2020-12-07,05:20:00,DRY,6.57,4.00,31.0,775.00,1.1
2020-12-07,05:25:00,DRY,5.90,4.00,28.0,775.00,1.2
2020-12-07,05:30:00,DRY,6.90,3.80,31.3,775.00,1.0
2020-12-07,05:35:00,DRY,6.15,3.70,31.0,775.00,1.1
2020-12-07,05:40:00,DRY,6.97,4.00,24.7,775.00,0.9
2020-12-07,05:45:00,DRY,6.70,4.60,21.0,775.00,1.1
2020-12-07,05:50:00,DRY,5.73,4.23,25.0,775.00,1.1
2020-12-07,05:55:00,DRY,5.40,4.45,21.5,775.00,1.1
2020-12-07,06:00:00,DRY,5.77,4.57,20.7,775.00,1.3
2020-12-07,06:05:00,DRY,5.80,4.20,22.0,775.00,1.1
2020-12-07,06:10:00,DRY,6.00,4.80,23.3,775.00,1.3
2020-12-07,06:15:00,DRY,6.55,5.20,21.0,775.00,1.2
2020-12-07,06:20:00,DRY,7.13,5.87,16.7,775.00,1.1
2020-12-07,06:25:00,DRY,6.75,5.05,18.5,775.00,0.9
2020-12-07,06:30:00,DRY,7.03,4.67,24.0,775.00,1.2
2020-12-07,06:35:00,DRY,6.20,4.30,26.5,775.00,1.1
2020-12-07,06:40:00,DRY,6.90,4.63,22.3,775.00,1.6
2020-12-07,06:45:00,DRY,6.20,5.20,24.5,775.00,0.8
2020-12-07,06:50:00,DRY,5.93,5.63,19.7,775.00,1.4
2020-12-07,06:55:00,DRY,6.90,5.85,17.0,775.00,1.4
2020-12-07,07:00:00,DRY,6.03,4.80,27.0,775.00,1.5
2020-12-07,07:05:00,DRY,5.70,3.50,36.0,775.00,1.4
2020-12-07,07:10:00,DRY,5.57,3.50,33.3,775.00,0.8
2020-12-07,07:15:00,DRY,7.05,3.50,29.5,775.00,1.1
2020-12-07,07:20:00,DRY,6.67,3.20,35.0,775.67,1.5
2020-12-07,07:25:00,DRY,7.00,2.85,37.0,776.00,1.2
2020-12-07,07:30:00,DRY,5.97,3.33,31.0,776.00,0.8
2020-12-07,07:35:00,DRY,5.55,3.55,28.5,776.00,1.7
2020-12-07,07:40:00,DRY,6.27,3.77,26.0,776.00,5.8
2020-12-07,07:45:00,DRY,6.65,4.40,20.0,776.00,8.3
2020-12-07,07:50:00,DRY,7.33,5.07,20.3,776.00,7.9
2020-12-07,07:55:00,DRY,7.00,4.05,25.0,776.00,9.2
2020-12-07,08:00:00,DRY,7.57,4.13,24.7,776.00,15.1
2020-12-07,08:05:00,DRY,5.40,3.95,26.0,776.00,21.1
2020-12-07,08:10:00,DRY,5.87,4.30,24.0,776.00,25.9
2020-12-07,08:15:00,DRY,6.00,4.50,22.5,776.00,30.9
2020-12-07,08:20:00,DRY,6.33,4.93,20.7,776.00,37.3
2020-12-07,08:25:00,DRY,5.50,4.65,22.5,776.00,42.7
2020-12-07,08:30:00,DRY,7.33,5.40,16.7,776.00,52.1
2020-12-07,08:35:00,DRY,7.60,6.05,15.5,776.00,168.9
2020-12-07,08:40:00,DRY,6.57,5.57,15.7,776.00,188.8
2020-12-07,08:45:00,DRY,7.10,5.75,15.5,776.00,223.4
2020-12-07,08:50:00,DRY,7.30,6.17,14.7,776.00,247.5
2020-12-07,08:55:00,DRY,6.95,6.30,16.0,776.00,267.5
2020-12-07,09:00:00,DRY,5.57,5.80,20.0,776.33,283.9
2020-12-07,09:05:00,DRY,4.65,4.60,27.5,776.00,306.8
2020-12-07,09:10:00,DRY,6.77,4.10,32.0,776.00,331.8
2020-12-07,09:15:00,DRY,7.65,4.35,29.0,776.50,360.9
2020-12-07,09:20:00,DRY,5.80,4.43,29.0,776.00,358.1
2020-12-07,09:25:00,DRY,7.50,4.50,28.5,776.50,344.6
2020-12-07,09:30:00,DRY,5.67,4.57,29.0,777.00,358.6
2020-12-07,09:35:00,DRY,5.30,4.70,25.5,776.50,379.1
2020-12-07,09:40:00,DRY,5.63,4.80,27.0,777.00,403.8
2020-12-07,09:45:00,DRY,6.00,4.95,23.5,777.00,430.1
2020-12-07,09:50:00,DRY,6.23,5.03,26.3,777.00,452.3
2020-12-07,09:55:00,DRY,5.85,4.95,27.0,777.00,482.2
2020-12-07,10:00:00,DRY,7.00,4.97,26.0,777.00,464.8
2020-12-07,10:05:00,DRY,6.20,5.20,24.0,777.00,482.8
2020-12-07,10:10:00,DRY,5.53,5.40,25.3,777.00,475.8
2020-12-07,10:15:00,DRY,6.10,5.25,26.0,777.00,508.1
2020-12-07,10:20:00,DRY,6.73,5.03,28.7,777.00,520.2
2020-12-07,10:25:00,DRY,4.80,5.35,25.5,777.00,543.5
2020-12-07,10:30:00,DRY,6.23,5.33,24.7,777.00,564.5
2020-12-07,10:35:00,DRY,4.80,5.55,24.0,777.00,595.1
2020-12-07,10:40:00,DRY,5.37,5.47,25.3,777.00,618.4
2020-12-07,10:45:00,DRY,4.80,4.95,32.0,777.00,631.0
2020-12-07,10:50:00,DRY,4.17,5.23,27.3,777.00,643.6
2020-12-07,10:55:00,DRY,4.50,5.70,25.0,777.00,626.5
2020-12-07,11:00:00,DRY,5.33,5.90,21.0,777.00,659.4
2020-12-07,11:05:00,DRY,4.95,5.90,22.5,777.00,693.0
2020-12-07,11:10:00,DRY,5.23,5.93,22.7,777.00,707.1
2020-12-07,11:15:00,DRY,3.60,6.30,20.5,777.00,703.0
2020-12-07,11:20:00,DRY,5.20,6.53,18.7,777.00,707.0
2020-12-07,11:25:00,DRY,4.80,6.65,16.5,777.00,693.8
2020-12-07,11:30:00,DRY,5.67,7.10,16.3,777.00,719.0
2020-12-07,11:35:00,DRY,4.15,7.40,15.0,777.00,754.2
2020-12-07,11:40:00,DRY,4.63,7.40,18.0,777.00,772.4
2020-12-07,11:45:00,DRY,4.65,6.80,21.5,777.00,726.0
2020-12-07,11:50:00,DRY,4.77,6.53,22.7,777.00,767.9
2020-12-07,11:55:00,DRY,3.80,6.55,22.0,777.00,787.2
2020-12-07,12:00:00,DRY,4.93,6.47,20.7,777.00,795.9
2020-12-07,12:05:00,DRY,5.25,6.55,18.5,777.00,788.5
2020-12-07,12:10:00,DRY,5.53,6.33,20.0,777.00,753.5
2020-12-07,12:15:00,DRY,5.55,6.60,17.0,777.00,757.7
2020-12-07,12:20:00,DRY,4.30,6.93,18.0,777.00,781.0
2020-12-07,12:25:00,DRY,4.75,7.05,18.0,777.00,778.9
2020-12-07,12:30:00,DRY,4.57,7.13,18.3,777.00,786.9
2020-12-07,12:35:00,DRY,4.35,7.15,19.0,777.00,811.0
2020-12-07,12:40:00,DRY,4.57,7.40,18.7,777.00,833.2
2020-12-07,12:45:00,DRY,4.25,7.20,24.0,777.00,843.6
2020-12-07,12:50:00,DRY,4.43,7.57,18.0,777.00,809.6
2020-12-07,12:55:00,DRY,5.60,7.60,18.0,777.00,741.0
2020-12-07,13:00:00,DRY,3.97,7.57,18.7,777.00,669.7
2020-12-07,13:05:00,DRY,5.50,7.50,19.5,776.50,782.8
2020-12-07,13:10:00,DRY,3.80,7.43,20.3,776.67,787.6
2020-12-07,13:15:00,DRY,4.75,7.45,18.5,777.00,770.8
2020-12-07,13:20:00,DRY,4.70,7.47,18.3,776.67,716.0
2020-12-07,13:25:00,DRY,4.05,7.45,14.5,776.00,680.5
2020-12-07,13:30:00,DRY,4.60,7.40,16.0,776.00,700.3
2020-12-07,13:35:00,DRY,6.00,7.30,15.0,776.00,719.5
2020-12-07,13:40:00,DRY,4.43,7.23,18.0,776.00,734.7
2020-12-07,13:45:00,DRY,4.00,7.40,17.5,776.00,723.8
2020-12-07,13:50:00,DRY,4.00,7.47,16.7,776.00,723.9
2020-12-07,13:55:00,DRY,3.85,7.35,17.0,776.00,705.1
2020-12-07,14:00:00,DRY,5.60,7.40,17.3,776.00,720.3
2020-12-07,14:05:00,DRY,4.10,7.35,18.5,776.00,713.2
2020-12-07,14:10:00,DRY,4.13,7.57,15.7,776.00,735.8
2020-12-07,14:15:00,DRY,2.80,7.55,15.5,776.00,769.8
2020-12-07,14:20:00,DRY,4.27,7.50,16.7,776.00,740.9
2020-12-07,14:25:00,DRY,3.50,7.40,16.0,776.00,710.0
2020-12-07,14:30:00,DRY,4.23,7.47,19.0,776.00,708.7
2020-12-07,14:35:00,DRY,4.55,7.50,17.5,776.00,733.1
2020-12-07,14:40:00,DRY,3.10,7.47,20.0,776.00,747.7
2020-12-07,14:45:00,DRY,3.00,7.30,21.5,776.00,737.2
2020-12-07,14:50:00,DRY,4.90,7.33,15.7,776.00,704.9
2020-12-07,14:55:00,DRY,2.95,7.20,18.5,776.00,676.0
2020-12-07,15:00:00,DRY,4.00,7.13,17.0,776.00,645.9
2020-12-07,15:05:00,DRY,3.90,6.95,14.5,776.00,650.0
2020-12-07,15:10:00,DRY,4.27,6.77,18.3,776.00,643.8
2020-12-07,15:15:00,DRY,3.15,6.70,17.5,776.00,629.2
2020-12-07,15:20:00,DRY,3.33,6.63,17.0,776.00,633.4
2020-12-07,15:25:00,DRY,4.00,6.60,16.5,776.00,624.8
2020-12-07,15:30:00,DRY,3.80,6.67,18.3,776.00,607.7
2020-12-07,15:35:00,DRY,3.40,6.70,17.5,776.00,562.9
2020-12-07,15:40:00,DRY,2.83,6.70,19.0,776.00,574.5
2020-12-07,15:45:00,DRY,1.65,6.75,20.0,776.00,560.8
2020-12-07,15:50:00,DRY,2.30,6.80,18.3,776.00,543.8
2020-12-07,15:55:00,DRY,3.80,6.80,19.0,776.00,512.2
2020-12-07,16:00:00,DRY,2.70,6.67,20.0,776.00,514.7
2020-12-07,16:05:00,DRY,3.75,6.50,21.0,776.00,497.1
2020-12-07,16:10:00,DRY,3.60,6.50,20.0,776.00,436.4
2020-12-07,16:15:00,DRY,2.70,6.60,19.5,776.00,448.6
2020-12-07,16:20:00,DRY,4.00,6.60,19.7,776.00,426.2
2020-12-07,16:25:00,DRY,4.05,6.60,18.5,776.00,409.3
2020-12-07,16:30:00,DRY,3.57,6.57,19.3,776.00,394.8
2020-12-07,16:35:00,DRY,3.00,6.50,18.5,776.00,367.1
2020-12-07,16:40:00,DRY,3.33,6.37,20.3,776.00,336.9
2020-12-07,16:45:00,DRY,3.60,6.30,19.5,776.00,324.9
2020-12-07,16:50:00,DRY,3.53,6.30,19.7,776.00,280.6
2020-12-07,16:55:00,DRY,3.95,6.20,20.5,776.00,272.0
2020-12-07,17:00:00,DRY,2.63,6.10,18.7,776.00,254.9
2020-12-07,17:05:00,DRY,2.90,6.05,19.0,776.00,153.8
2020-12-07,17:10:00,DRY,3.80,5.90,19.3,776.00,163.2
2020-12-07,17:15:00,DRY,4.55,5.95,19.0,776.00,160.1
2020-12-07,17:20:00,DRY,3.90,5.90,18.7,776.00,137.4
2020-12-07,17:25:00,DRY,2.85,6.10,17.5,776.00,146.0
2020-12-07,17:30:00,DRY,3.90,5.90,18.0,776.00,61.6
2020-12-07,17:35:00,DRY,3.50,5.80,18.0,776.00,44.6
2020-12-07,17:40:00,DRY,3.80,5.93,16.3,776.00,41.8
2020-12-07,17:45:00,DRY,3.05,6.10,15.0,776.00,38.6
2020-12-07,17:50:00,DRY,2.50,6.10,15.7,776.00,30.9
2020-12-07,17:55:00,DRY,3.25,5.90,15.0,776.00,23.2
2020-12-07,18:00:00,DRY,4.23,6.53,11.7,776.33,17.4
2020-12-07,18:05:00,DRY,4.30,6.40,12.5,776.00,11.6
2020-12-07,18:10:00,DRY,4.97,6.20,12.7,776.33,6.7
2020-12-07,18:15:00,DRY,5.15,6.40,11.0,776.00,5.3
2020-12-07,18:20:00,DRY,4.20,6.47,10.3,776.33,3.9
2020-12-07,18:25:00,DRY,4.25,6.40,11.0,776.00,4.3
2020-12-07,18:30:00,DRY,3.43,6.40,11.7,777.00,1.7
2020-12-07,18:35:00,DRY,3.90,6.40,11.0,776.50,0.9
2020-12-07,18:40:00,DRY,3.77,6.30,10.7,777.00,0.6
2020-12-07,18:45:00,DRY,3.80,6.35,10.0,777.00,1.1
2020-12-07,18:50:00,DRY,4.17,6.60,10.0,777.00,1.4
2020-12-07,18:55:00,DRY,5.10,6.70,10.0,777.00,1.4
2020-12-07,19:00:00,DRY,5.07,6.70,11.0,777.00,1.1
2020-12-07,19:05:00,DRY,3.95,6.85,8.5,777.00,1.4
2020-12-07,19:10:00,DRY,4.33,6.80,10.0,777.00,1.0
2020-12-07,19:15:00,DRY,4.45,6.65,9.0,777.00,0.7
2020-12-07,19:20:00,DRY,5.43,6.57,10.3,777.00,1.0
2020-12-07,19:25:00,DRY,5.35,6.50,10.0,777.00,1.1
2020-12-07,19:30:00,DRY,4.47,6.70,9.3,777.00,1.0
2020-12-07,19:35:00,DRY,4.25,6.45,9.0,777.00,2.1
2020-12-07,19:40:00,DRY,4.90,6.43,9.7,777.00,1.2
2020-12-07,19:45:00,DRY,5.50,6.50,8.0,777.00,1.2
2020-12-07,19:50:00,DRY,5.27,6.47,8.3,777.00,0.8
2020-12-07,19:55:00,DRY,5.95,6.45,8.5,777.00,1.1
2020-12-07,20:00:00,DRY,4.83,6.17,9.0,777.00,1.3
2020-12-07,20:05:00,DRY,5.40,6.45,8.5,777.00,1.8
2020-12-07,20:10:00,DRY,3.77,6.40,8.7,777.00,0.8
2020-12-07,20:15:00,DRY,6.35,6.45,7.5,777.00,0.9
2020-12-07,20:20:00,DRY,2.70,6.87,6.3,777.00,1.3
2020-12-07,20:25:00,DRY,3.75,6.70,7.5,777.00,0.9
2020-12-07,20:30:00,DRY,3.50,6.53,7.7,777.00,0.9
2020-12-07,20:35:00,DRY,5.45,6.75,6.0,777.00,1.0
2020-12-07,20:40:00,DRY,3.50,6.87,6.0,777.00,1.1
2020-12-07,20:45:00,DRY,4.40,6.90,6.0,777.00,1.4
2020-12-07,20:50:00,DRY,1.90,6.87,6.7,777.00,1.4
2020-12-07,20:55:00,DRY,1.90,6.70,7.0,777.00,0.1
2020-12-07,21:00:00,DRY,2.60,6.67,8.3,777.00,1.2
2020-12-07,21:05:00,DRY,3.15,7.00,8.0,777.00,1.8
2020-12-07,21:10:00,DRY,2.60,7.20,8.3,777.00,0.9
2020-12-07,21:15:00,DRY,2.75,7.30,7.0,777.00,0.6
2020-12-07,21:20:00,DRY,3.20,7.07,8.0,777.00,1.8
2020-12-07,21:25:00,DRY,1.85,6.85,9.0,777.00,1.6
2020-12-07,21:30:00,DRY,2.67,7.00,10.7,777.33,1.1
2020-12-07,21:35:00,DRY,2.25,7.30,14.0,777.00,1.6
2020-12-07,21:40:00,DRY,3.13,7.13,14.3,777.00,1.3
2020-12-07,21:45:00,DRY,1.40,7.15,17.0,778.00,1.5
2020-12-07,21:50:00,DRY,2.90,7.03,16.7,778.00,1.9
2020-12-07,21:55:00,DRY,2.40,7.05,18.5,778.00,0.9
2020-12-07,22:00:00,DRY,2.07,6.77,20.3,777.67,1.1
2020-12-07,22:05:00,DRY,2.80,6.90,23.5,778.00,0.6
2020-12-07,22:10:00,DRY,2.67,6.87,24.7,778.00,0.9
2020-12-07,22:15:00,DRY,2.10,6.85,26.5,778.00,0.8
2020-12-07,22:20:00,DRY,1.90,6.83,27.7,778.00,0.3
2020-12-07,22:25:00,DRY,2.05,6.90,28.5,778.00,0.9
2020-12-07,22:30:00,DRY,3.20,6.73,28.0,778.00,1.1
2020-12-07,22:35:00,DRY,1.95,6.70,28.0,778.00,0.7
2020-12-07,22:40:00,DRY,2.87,6.73,27.0,778.00,0.8
2020-12-07,22:45:00,DRY,2.75,6.65,28.0,778.00,1.6
2020-12-07,22:50:00,DRY,3.77,6.60,30.3,778.00,1.3
2020-12-07,22:55:00,DRY,3.70,6.40,30.0,778.00,0.8
2020-12-07,23:00:00,DRY,4.13,6.57,29.7,778.00,0.8
2020-12-07,23:05:00,DRY,3.15,6.45,29.5,778.00,1.4
2020-12-07,23:10:00,DRY,3.20,6.57,30.0,778.00,1.2
2020-12-07,23:15:00,DRY,2.05,6.65,29.0,778.00,1.1
2020-12-07,23:20:00,DRY,1.67,6.30,28.7,778.00,0.9
2020-12-07,23:25:00,DRY,2.05,6.35,30.5,778.00,1.8
2020-12-07,23:30:00,DRY,3.47,6.43,30.0,778.00,1.9
2020-12-07,23:35:00,DRY,2.80,6.35,30.5,778.00,0.6
2020-12-07,23:40:00,DRY,3.33,6.23,32.7,778.00,1.3
2020-12-07,23:45:00,DRY,3.60,6.30,32.0,778.00,1.2
2020-12-07,23:50:00,DRY,2.40,6.47,31.3,778.00,0.6
2020-12-07,23:55:00,DRY,2.50,6.55,31.0,778.00,1.4
2020-12-08,00:00:00,DRY,3.17,6.33,32.7,778.00,0.9
2020-12-08,00:05:00,DRY,3.80,6.20,32.0,778.00,1.1
2020-12-08,00:10:00,DRY,3.50,6.17,32.7,778.00,1.3
2020-12-08,00:15:00,DRY,3.30,6.25,31.5,778.00,0.6
2020-12-08,00:20:00,DRY,3.40,6.10,32.0,777.33,1.0
2020-12-08,00:25:00,DRY,3.05,5.95,33.0,778.00,1.2
2020-12-08,00:30:00,DRY,4.90,6.17,30.7,777.67,1.8
2020-12-08,00:35:00,DRY,4.40,6.05,30.0,777.50,1.1
2020-12-08,00:40:00,DRY,3.97,6.10,30.7,777.00,1.0
2020-12-08,00:45:00,DRY,3.05,6.05,27.5,777.00,0.8
2020-12-08,00:50:00,DRY,4.30,6.10,22.7,777.33,1.1
2020-12-08,00:55:00,DRY,5.05,6.30,24.0,777.00,1.1
2020-12-08,01:00:00,DRY,3.63,5.87,29.3,777.00,1.4
2020-12-08,01:05:00,DRY,5.55,6.00,24.0,777.00,2.1
2020-12-08,01:10:00,DRY,4.03,6.00,21.3,777.00,1.3
2020-12-08,01:15:00,DRY,4.50,5.85,15.0,777.00,0.9
2020-12-08,01:20:00,DRY,4.40,5.90,18.3,777.00,1.3
2020-12-08,01:25:00,DRY,4.85,5.95,17.5,777.00,1.5
2020-12-08,01:30:00,DRY,3.67,5.93,21.0,777.00,0.9
2020-12-08,01:35:00,DRY,4.10,6.05,21.5,777.00,1.3
2020-12-08,01:40:00,DRY,4.97,6.03,21.0,777.00,1.1
2020-12-08,01:45:00,DRY,4.45,6.15,14.0,777.00,1.4
2020-12-08,01:50:00,DRY,4.73,6.13,16.3,777.00,1.1
2020-12-08,01:55:00,DRY,3.45,6.05,21.5,777.00,0.6
2020-12-08,02:00:00,DRY,4.27,5.97,28.0,777.00,1.3
2020-12-08,02:05:00,DRY,4.60,6.00,32.0,777.00,1.1
2020-12-08,02:10:00,DRY,3.67,5.93,32.7,777.00,0.8
2020-12-08,02:15:00,DRY,5.65,5.90,33.0,777.00,0.9
2020-12-08,02:20:00,DRY,4.80,5.93,34.7,777.00,1.1
2020-12-08,02:25:00,DRY,3.70,5.85,36.5,777.00,1.1
2020-12-08,02:30:00,DRY,5.77,5.63,37.7,777.00,1.2
2020-12-08,02:35:00,DRY,4.50,5.55,37.5,777.00,1.1
2020-12-08,02:40:00,DRY,5.33,5.67,38.0,777.00,0.9
2020-12-08,02:45:00,DRY,4.00,5.65,36.5,777.00,1.4
2020-12-08,02:50:00,DRY,5.93,5.67,34.0,777.00,1.7
2020-12-08,02:55:00,DRY,5.20,5.60,32.5,777.00,1.6
2020-12-08,03:00:00,DRY,3.83,5.67,29.7,777.00,1.5
2020-12-08,03:05:00,DRY,5.35,5.70,29.0,777.00,1.7
2020-12-08,03:10:00,DRY,5.07,5.67,25.0,777.00,1.0
2020-12-08,03:15:00,DRY,5.20,5.60,29.5,777.00,1.3
2020-12-08,03:20:00,DRY,5.03,5.43,35.0,777.00,1.1
2020-12-08,03:25:00,DRY,4.85,5.45,34.5,777.00,1.5
2020-12-08,03:30:00,DRY,4.80,5.50,35.7,777.00,1.1
2020-12-08,03:35:00,DRY,5.40,5.55,36.0,777.00,0.8
2020-12-08,03:40:00,DRY,5.03,5.37,36.0,777.00,1.0
2020-12-08,03:45:00,DRY,4.85,5.35,37.5,777.00,0.6
2020-12-08,03:50:00,DRY,3.57,5.30,36.7,777.00,1.0
2020-12-08,03:55:00,DRY,4.05,5.40,34.0,777.00,1.4
2020-12-08,04:00:00,DRY,4.43,5.33,31.0,777.00,1.0
2020-12-08,04:05:00,DRY,3.70,5.10,29.0,777.00,1.2
2020-12-08,04:10:00,DRY,4.03,5.13,29.0,777.00,1.1
2020-12-08,04:15:00,DRY,4.05,5.20,27.0,777.00,1.2
2020-12-08,04:20:00,DRY,4.20,5.03,29.7,777.00,1.0
2020-12-08,04:25:00,DRY,4.85,5.10,33.0,777.00,1.2
2020-12-08,04:30:00,DRY,3.77,5.17,28.3,777.00,1.1
2020-12-08,04:35:00,DRY,4.30,5.25,32.5,777.00,1.3
2020-12-08,04:40:00,DRY,3.93,5.13,33.7,777.00,1.3
2020-12-08,04:45:00,DRY,3.75,5.05,34.0,777.00,1.7
2020-12-08,04:50:00,DRY,3.70,5.13,28.3,777.00,1.5
2020-12-08,04:55:00,DRY,3.40,5.15,27.0,777.00,0.9
2020-12-08,05:00:00,DRY,3.57,5.03,28.0,777.00,1.0
2020-12-08,05:05:00,DRY,3.45,5.10,29.0,777.00,1.1
2020-12-08,05:10:00,DRY,4.07,5.00,28.3,777.00,1.3
2020-12-08,05:15:00,DRY,4.20,5.15,31.0,777.00,1.4
2020-12-08,05:20:00,DRY,3.80,5.07,28.7,777.00,1.1
2020-12-08,05:25:00,DRY,4.20,5.05,25.0,777.00,1.4
2020-12-08,05:30:00,DRY,4.13,5.00,24.3,777.00,1.0
2020-12-08,05:35:00,DRY,3.10,4.95,22.5,777.00,0.6
2020-12-08,05:40:00,DRY,4.63,4.90,24.3,777.00,0.9
2020-12-08,05:45:00,DRY,4.40,5.05,24.0,777.00,2.2
2020-12-08,05:50:00,DRY,3.77,5.07,27.7,777.00,1.3
2020-12-08,05:55:00,DRY,4.95,4.95,30.5,777.00,1.2
2020-12-08,06:00:00,DRY,5.13,5.00,29.0,777.00,1.3
2020-12-08,06:05:00,DRY,4.70,5.20,31.5,777.00,1.4
2020-12-08,06:10:00,DRY,3.73,4.83,31.0,777.00,1.1
2020-12-08,06:15:00,DRY,5.25,4.85,29.0,777.00,1.6
2020-12-08,06:20:00,DRY,4.33,4.90,24.7,777.00,1.4
2020-12-08,06:25:00,DRY,4.40,4.95,22.5,777.00,1.2
2020-12-08,06:30:00,DRY,4.40,4.90,20.7,777.00,1.2
2020-12-08,06:35:00,DRY,4.95,4.90,19.5,778.00,1.1
2020-12-08,06:40:00,DRY,4.90,5.00,18.3,777.33,1.7
2020-12-08,06:45:00,DRY,5.95,4.85,15.5,777.00,1.8
2020-12-08,06:50:00,DRY,4.47,5.00,20.0,777.33,1.8
2020-12-08,06:55:00,DRY,4.15,4.95,22.0,778.00,1.6
2020-12-08,07:00:00,DRY,5.13,4.87,20.7,778.00,1.0
2020-12-08,07:05:00,DRY,5.90,4.80,21.5,778.00,1.6
2020-12-08,07:10:00,DRY,5.27,4.80,20.7,778.00,1.7
2020-12-08,07:15:00,DRY,5.50,4.75,16.0,778.00,1.3
2020-12-08,07:20:00,DRY,5.97,4.70,15.0,778.00,1.3
2020-12-08,07:25:00,DRY,6.15,4.65,15.0,778.00,1.4
2020-12-08,07:30:00,DRY,6.33,4.63,16.0,778.00,1.3
2020-12-08,07:35:00,DRY,5.20,4.55,17.0,778.00,1.6
2020-12-08,07:40:00,DRY,6.30,4.60,19.0,778.00,2.9
2020-12-08,07:45:00,DRY,4.85,4.50,20.0,778.00,4.4
2020-12-08,07:50:00,DRY,4.70,4.17,22.3,778.00,6.6
2020-12-08,07:55:00,DRY,5.70,4.20,25.5,778.00,8.9
2020-12-08,08:00:00,DRY,4.97,4.47,29.0,778.00,11.2
2020-12-08,08:05:00,DRY,5.20,4.50,30.0,778.00,13.8
2020-12-08,08:10:00,DRY,5.37,4.57,29.0,778.00,16.0
2020-12-08,08:15:00,DRY,5.90,4.60,31.0,778.00,17.8
2020-12-08,08:20:00,DRY,6.10,4.60,34.0,778.00,19.8
2020-12-08,08:25:00,DRY,6.85,4.60,34.0,778.00,22.3
2020-12-08,08:30:00,DRY,4.87,4.70,30.0,778.00,24.8
2020-12-08,08:35:00,DRY,6.05,4.90,30.0,778.00,132.2
2020-12-08,08:40:00,DRY,4.63,4.97,30.7,778.00,188.4
2020-12-08,08:45:00,DRY,4.65,4.90,30.0,778.00,208.6
2020-12-08,08:50:00,DRY,5.47,4.83,29.0,778.00,228.8
2020-12-08,08:55:00,DRY,6.50,4.85,28.5,778.00,248.0
2020-12-08,09:00:00,DRY,6.47,4.90,32.0,778.00,268.6
2020-12-08,09:05:00,DRY,6.40,4.85,30.0,778.00,288.5
2020-12-08,09:10:00,DRY,5.40,4.80,30.3,778.00,308.3
2020-12-08,09:15:00,DRY,5.80,4.85,29.0,778.00,328.6
2020-12-08,09:20:00,DRY,6.10,5.00,29.0,778.00,346.9
2020-12-08,09:25:00,DRY,4.75,5.05,28.5,778.00,366.2
2020-12-08,09:30:00,DRY,5.13,5.07,30.7,778.00,385.4
2020-12-08,09:35:00,DRY,4.70,5.05,29.5,778.00,404.6
2020-12-08,09:40:00,DRY,5.67,5.10,30.0,778.00,423.3
2020-12-08,09:45:00,DRY,4.50,5.15,28.5,778.50,441.7
2020-12-08,09:50:00,DRY,5.40,5.13,27.7,778.33,459.8
2020-12-08,09:55:00,DRY,3.70,5.15,27.0,779.00,477.5
2020-12-08,10:00:00,DRY,6.03,5.20,27.3,778.67,494.6
2020-12-08,10:05:00,DRY,4.75,5.10,27.0,779.00,511.9
2020-12-08,10:10:00,DRY,4.80,5.10,25.3,779.00,528.7
2020-12-08,10:15:00,DRY,5.10,5.05,25.5,779.00,545.1
2020-12-08,10:20:00,DRY,5.20,5.03,24.7,779.00,560.9
2020-12-08,10:25:00,DRY,5.55,5.00,24.5,779.00,576.4
2020-12-08,10:30:00,DRY,5.57,4.93,25.7,779.00,591.7
2020-12-08,10:35:00,DRY,5.15,4.90,26.0,779.00,606.0
2020-12-08,10:40:00,DRY,5.47,5.07,26.0,779.00,620.1
2020-12-08,10:45:00,DRY,6.40,5.15,25.0,779.00,633.2
2020-12-08,10:50:00,DRY,5.80,5.10,26.3,779.00,646.3
2020-12-08,10:55:00,DRY,5.30,5.00,26.0,779.00,658.5
2020-12-08,11:00:00,DRY,5.77,5.20,24.3,779.00,671.3
2020-12-08,11:05:00,DRY,5.30,5.10,29.0,779.00,682.6
2020-12-08,11:10:00,DRY,5.13,5.03,30.3,779.00,694.0
2020-12-08,11:15:00,DRY,5.70,5.05,33.5,779.00,704.6
2020-12-08,11:20:00,DRY,5.17,5.07,39.3,779.00,714.7
2020-12-08,11:25:00,DRY,5.15,5.10,45.5,779.00,724.0
2020-12-08,11:30:00,DRY,5.43,5.17,46.3,779.00,733.0
2020-12-08,11:35:00,DRY,6.25,5.20,45.5,779.00,742.4
2020-12-08,11:40:00,DRY,5.67,5.30,47.7,778.67,750.3
2020-12-08,11:45:00,DRY,6.60,5.30,48.5,779.00,757.6
2020-12-08,11:50:00,DRY,5.50,5.33,48.7,779.00,765.2
2020-12-08,11:55:00,DRY,5.45,5.50,48.0,778.00,772.5
2020-12-08,12:00:00,DRY,5.63,5.50,47.7,778.67,777.6
2020-12-08,12:05:00,DRY,5.05,5.50,48.0,778.00,783.7
2020-12-08,12:10:00,DRY,4.37,5.40,48.7,778.00,788.3
2020-12-08,12:15:00,DRY,4.60,5.40,50.0,778.50,792.6
2020-12-08,12:20:00,DRY,4.90,5.40,49.3,778.00,796.9
2020-12-08,12:25:00,DRY,4.90,5.40,50.0,778.00,800.5